Home > Weather > Tarnów > Past weeks

Flag for Poland Past Weather in Tarnów, Poland — Yesterday and Last 2 Weeks

Now
56 °F

Fog.


Feels Like: 56 °F
Forecast: 58 / 75 °F
Wind: 1 mph from Northwest

Location: Tarnow

Current Time: May 26, 2016 at 2:43:55 AM

Latest Report: May 26, 2016 at 1:00 AM


Visibility: 5 mi

Pressure: 29.89 "Hg

Humidity: 89%

Dew Point: 53 °F

Location of TarnówLocation

Past Weather in Tarnów — Graph

°F

Tarnów Temperature Yesterday

Maximum temperature yesterday: 71 °F (at 1:00 PM)
Minimum temperature yesterday: 51 °F (at 5:00 AM)
Average temperature yesterday: 60 °F

High & Low Weather Summary for the Past Weeks

 TemperatureHumidityPressure
High81 °F (May 23, 2:00 PM)96% (May 14, 1:00 AM)30.12 "Hg (May 14, 1:00 AM)
Low35 °F (May 16, 4:00 AM)32% (May 23, 3:00 PM)29.35 "Hg (May 14, 3:00 AM)
Average57 °F69%29.85 "Hg
* Reported May 11 1:00 AM — May 26 1:00 AM, Tarnów, Weather by CustomWeather, © 2016

Note: Actual official high and low records may vary slightly from our data, if they occured in-between our weather recording intervals... More about our weather records

Advertising

Tarnów Weather History for the Previous 24 Hours

Scroll right to see more
 ConditionsComfort  
Time TempWeatherWind HumidityBarometerVisibility
1:00 AM
Thu, May 26
56 °FFog.1 mph89%29.89 "Hg5 mi
12:00 AM56 °FFog.1 mph91%29.88 "Hg4 mi
11:00 PM
Wed, May 25
56 °FFog.No wind91%29.87 "Hg3 mi
10:00 PM57 °FFog.No wind88%29.86 "Hg4 mi
9:00 PM59 °FCool.No wind87%29.85 "Hg7 mi
8:00 PM62 °FCool.1 mph85%29.82 "Hg12 mi
7:00 PM63 °FMild.1 mph86%29.83 "Hg6 mi
6:00 PM62 °FCool.1 mph86%29.79 "Hg6 mi
5:00 PM60 °FRain showers. Cloudy.3 mph81%29.82 "Hg16 mi
4:00 PM62 °FCool.1 mph88%29.79 "Hg19 mi
3:00 PM61 °FRain showers. Cloudy.3 mph74%29.81 "Hg4 mi
2:00 PM67 °FMild.2 mph73%29.78 "Hg19 mi
1:00 PM71 °FMild.1 mph50%29.77 "Hg15 mi
12:00 PM70 °FMild.1 mph48%29.78 "Hg19 mi
11:00 AM67 °FMild.1 mph51%29.79 "Hg16 mi
10:00 AM63 °FMild.1 mph61%29.80 "Hg11 mi
9:00 AM61 °FCool.1 mph63%29.79 "Hg19 mi
8:00 AM57 °FCool.No wind72%29.79 "Hg16 mi
7:00 AM57 °FCool.1 mph72%29.78 "Hg19 mi
6:00 AM53 °FCool.No wind86%29.77 "Hg16 mi
5:00 AM51 °FCool.No wind90%29.77 "Hg7 mi
4:00 AM52 °FCool.No wind90%29.75 "Hg10 mi
3:00 AM52 °FCool.No wind87%29.75 "Hg12 mi
2:00 AM51 °FCool.No wind82%29.74 "Hg11 mi
Weather by CustomWeather, © 2016

See weather overviewHow to use our weather pages